Total_Precipitation_Accumulation
0.12 0.19 0.23 0.28 0.23 0.17 0.14 0.14 0.23 0.30 0.41 0.49 0.50 0.62 0.87 0.71 0.54 0.43 0.46 0.39 0.36 0.38 0.46 0.50 0.58 0.61 0.65 0.73 0.82 0.87 1.03 1.20 1.41 1.62 1.48 1.29 1.26 1.23 1.21 1.26 1.37 1.60 1.74 1.82
0.12 0.16 0.19 0.24 0.26 0.19 0.16 0.14 0.13 0.23 0.39 0.45 0.55 0.59 0.68 0.65 0.58 0.50 0.54 0.53 0.50 0.56 0.55 0.59 0.68 0.67 0.64 0.62 0.74 0.87 1.02 1.14 1.29 1.37 1.26 1.11 1.00 1.01 1.06 1.12 1.25 1.42 1.57 1.65
0.21 0.19 0.22 0.27 0.26 0.22 0.19 0.20 0.21 0.31 0.42 0.43 0.55 0.53 0.56 0.69 0.72 0.66 0.51 0.52 0.56 0.51 0.55 0.58 0.63 0.64 0.62 0.61 0.78 1.03 1.10 1.13 1.21 1.29 1.27 1.17 1.00 0.98 1.01 1.09 1.22 1.30 1.35 1.40
0.35 0.38 0.44 0.35 0.32 0.28 0.26 0.31 0.31 0.35 0.39 0.44 0.56 0.54 0.42 0.44 0.51 0.59 0.61 0.60 0.58 0.56 0.55 0.53 0.54 0.59 0.58 0.61 0.78 0.98 1.08 1.16 1.34 1.45 1.41 1.33 1.25 1.20 1.22 1.24 1.25 1.27 1.29 1.31
0.56 0.56 0.47 0.45 0.46 0.46 0.48 0.58 0.52 0.47 0.45 0.48 0.50 0.54 0.51 0.40 0.36 0.43 0.51 0.62 0.61 0.57 0.56 0.54 0.54 0.59 0.64 0.69 0.87 1.10 1.22 1.32 1.42 1.57 1.59 1.54 1.57 1.59 1.57 1.51 1.40 1.37 1.39 1.43
0.64 0.73 0.72 0.68 0.58 0.52 0.63 0.97 0.87 0.71 0.59 0.56 0.56 0.79 0.87 0.66 0.49 0.45 0.46 0.58 0.68 0.66 0.59 0.57 0.56 0.63 0.78 0.91 1.07 1.20 1.36 1.49 1.54 1.71 1.81 1.76 1.80 1.86 1.88 1.90 1.80 1.75 1.64 1.55
0.73 0.83 0.86 0.79 0.60 0.61 1.07 1.37 1.06 0.89 0.79 0.73 0.79 0.79 0.78 0.68 0.58 0.48 0.47 0.53 0.62 0.76 0.68 0.63 0.66 0.80 0.97 1.07 1.17 1.22 1.38 1.52 1.63 1.82 1.97 2.07 2.21 2.28 2.25 2.22 2.15 2.02 1.81 1.69
0.92 1.11 1.14 0.76 0.74 1.00 1.20 1.08 1.06 1.06 1.07 1.02 0.92 0.72 0.63 0.61 0.53 0.49 0.47 0.47 0.47 0.53 0.58 0.63 0.71 0.91 1.11 1.19 1.20 1.25 1.33 1.50 1.74 1.93 1.97 2.03 2.30 2.38 2.35 2.28 2.18 2.04 1.90 1.71
1.11 1.24 1.02 0.81 0.87 0.92 1.03 1.12 1.13 1.13 1.13 1.02 0.89 0.75 0.64 0.60 0.50 0.46 0.44 0.43 0.47 0.51 0.59 0.68 0.80 1.03 1.32 1.41 1.39 1.34 1.40 1.55 1.79 1.97 2.12 2.24 2.33 2.30 2.27 2.26 2.18 2.04 1.94 1.79
1.21 1.20 0.96 0.91 0.93 0.90 0.97 1.03 1.13 1.06 0.99 0.92 0.86 0.76 0.64 0.53 0.45 0.42 0.44 0.44 0.48 0.53 0.61 0.71 0.85 1.05 1.28 1.30 1.27 1.29 1.31 1.40 1.55 1.68 1.76 1.89 2.06 2.04 1.95 1.96 2.00 1.98 1.91 1.83
1.25 1.27 1.17 1.11 1.11 1.00 0.89 0.85 0.83 0.83 0.83 0.85 0.84 0.82 0.66 0.52 0.44 0.38 0.38 0.40 0.46 0.59 0.72 0.79 0.87 0.96 1.05 1.11 1.16 1.20 1.18 1.21 1.30 1.40 1.50 1.62 1.70 1.77 1.74 1.71 1.63 1.65 1.66 1.67
1.36 1.22 1.18 1.30 1.18 1.05 0.88 0.81 0.78 0.74 0.73 0.75 0.76 0.76 0.63 0.54 0.49 0.40 0.35 0.39 0.50 0.61 0.71 0.80 0.91 1.04 1.09 1.10 1.18 1.25 1.24 1.20 1.19 1.23 1.30 1.37 1.46 1.47 1.41 1.30 1.20 1.14 1.11 1.13
1.07 0.99 0.98 1.06 1.00 0.91 0.84 0.86 0.91 0.85 0.77 0.72 0.70 0.64 0.55 0.48 0.44 0.40 0.40 0.44 0.52 0.56 0.60 0.68 0.80 0.97 1.09 1.24 1.31 1.36 1.33 1.26 1.23 1.17 1.18 1.26 1.33 1.39 1.37 1.20 1.03 0.90 0.82 0.78
0.88 0.82 0.89 0.90 0.87 0.81 0.78 0.82 0.87 0.77 0.73 0.71 0.71 0.64 0.55 0.49 0.45 0.42 0.42 0.44 0.47 0.49 0.52 0.64 0.74 0.82 0.93 1.14 1.31 1.37 1.35 1.29 1.23 1.17 1.13 1.16 1.20 1.22 1.28 1.34 1.24 1.05 0.86 0.71
1.01 0.80 0.81 0.80 0.79 0.77 0.69 0.70 0.71 0.66 0.61 0.64 0.64 0.63 0.56 0.52 0.46 0.44 0.42 0.42 0.47 0.53 0.55 0.65 0.76 0.82 0.92 1.06 1.15 1.16 1.15 1.12 1.07 1.09 1.11 1.10 1.13 1.14 1.13 1.20 1.20 1.15 1.01 0.84
0.98 0.77 0.67 0.66 0.70 0.76 0.70 0.65 0.65 0.64 0.59 0.55 0.56 0.51 0.46 0.42 0.41 0.42 0.42 0.44 0.54 0.61 0.66 0.78 0.84 0.87 0.99 1.10 1.16 1.14 1.12 1.07 1.00 1.01 1.06 1.08 1.09 1.10 1.07 1.14 1.14 1.15 1.05 0.88
0.93 0.79 0.66 0.59 0.59 0.64 0.67 0.58 0.52 0.53 0.53 0.49 0.48 0.45 0.40 0.38 0.41 0.41 0.39 0.40 0.49 0.59 0.69 0.86 0.92 0.91 1.03 1.15 1.22 1.20 1.12 1.02 0.88 0.85 0.90 0.96 1.01 1.01 0.99 1.01 1.02 1.04 0.94 0.75
0.77 0.71 0.64 0.59 0.56 0.54 0.59 0.57 0.49 0.50 0.53 0.48 0.42 0.41 0.42 0.48 0.58 0.63 0.60 0.56 0.59 0.59 0.63 0.76 0.84 0.92 1.02 1.12 1.18 1.19 1.15 1.06 0.92 0.79 0.77 0.83 0.89 0.92 0.92 0.92 0.91 0.92 0.83 0.63
0.60 0.62 0.60 0.57 0.55 0.53 0.59 0.58 0.56 0.55 0.54 0.48 0.44 0.43 0.47 0.57 0.70 0.78 0.78 0.79 0.82 0.79 0.73 0.71 0.78 0.82 0.92 0.99 1.02 1.10 1.06 0.99 0.89 0.74 0.70 0.75 0.80 0.88 0.87 0.81 0.82 0.82 0.73 0.61
0.53 0.52 0.53 0.58 0.63 0.65 0.67 0.65 0.63 0.59 0.54 0.50 0.52 0.54 0.59 0.64 0.75 0.84 0.85 0.83 0.83 0.86 0.80 0.71 0.68 0.70 0.76 0.82 0.87 0.92 0.91 0.90 0.86 0.69 0.65 0.77 0.84 0.88 0.84 0.76 0.77 0.75 0.65 0.61
0.52 0.44 0.43 0.43 0.44 0.48 0.48 0.46 0.48 0.51 0.53 0.60 0.71 0.80 0.83 0.79 0.82 0.93 1.01 0.90 0.73 0.75 0.72 0.65 0.57 0.57 0.60 0.72 0.77 0.81 0.81 0.81 0.85 0.75 0.66 0.74 0.82 0.85 0.81 0.74 0.69 0.63 0.57 0.59
0.51 0.44 0.40 0.38 0.36 0.35 0.29 0.28 0.34 0.46 0.55 0.61 0.70 0.83 0.94 0.98 0.99 0.98 0.90 0.88 0.79 0.75 0.67 0.58 0.52 0.50 0.49 0.56 0.69 0.74 0.73 0.73 0.77 0.75 0.70 0.72 0.79 0.81 0.78 0.69 0.62 0.55 0.53 0.55
0.48 0.44 0.40 0.35 0.34 0.34 0.29 0.27 0.29 0.38 0.50 0.58 0.67 0.85 1.01 1.05 1.13 1.26 1.08 0.80 0.73 0.73 0.66 0.56 0.51 0.47 0.44 0.42 0.56 0.65 0.67 0.71 0.74 0.73 0.70 0.65 0.64 0.67 0.68 0.62 0.57 0.56 0.59 0.62
0.49 0.43 0.46 0.44 0.38 0.33 0.33 0.34 0.35 0.41 0.48 0.53 0.61 0.80 1.02 1.16 1.11 1.00 0.94 0.82 0.71 0.64 0.60 0.54 0.45 0.42 0.41 0.37 0.45 0.55 0.60 0.66 0.64 0.63 0.60 0.58 0.61 0.65 0.62 0.60 0.58 0.59 0.63 0.65
0.47 0.45 0.47 0.49 0.47 0.46 0.48 0.51 0.53 0.55 0.59 0.59 0.59 0.65 0.79 1.01 1.15 0.98 0.79 0.72 0.66 0.58 0.56 0.55 0.47 0.42 0.37 0.35 0.37 0.44 0.50 0.54 0.53 0.53 0.52 0.55 0.59 0.59 0.54 0.53 0.55 0.58 0.62 0.65
0.46 0.45 0.46 0.47 0.48 0.53 0.62 0.70 0.78 0.80 0.85 0.88 0.79 0.72 0.74 0.83 0.94 0.92 0.78 0.67 0.62 0.58 0.53 0.53 0.49 0.44 0.39 0.37 0.35 0.39 0.45 0.52 0.54 0.53 0.50 0.55 0.54 0.51 0.52 0.54 0.51 0.51 0.53 0.54
0.46 0.43 0.42 0.46 0.50 0.55 0.69 0.82 0.93 1.00 1.08 1.15 1.08 0.89 0.82 0.79 0.83 0.84 0.77 0.70 0.66 0.63 0.61 0.58 0.55 0.52 0.49 0.45 0.39 0.38 0.45 0.52 0.55 0.56 0.57 0.59 0.61 0.61 0.57 0.54 0.50 0.47 0.46 0.42